カタログに戻る

STARLINK-35161

運用中通信VLEO
NORAD 65936·PAYLOAD·🇺🇸 United States

打ち上げ Oct 8, 2025 から Vandenberg Space Force Base

Loading…

次のパス (今後24時間)

TLE

最新Source: CelesTrak SupGP

元期: Sep 14, 2026, 21:34 UTC

1 65936C 25225AC  26257.89909722 -.00001943  00000+0 -57418-4 0  2577
2 65936  53.1592   3.8538 0001214  85.3187  98.1547 15.34378124    16

AllMySatでSTARLINK-35161をリアルタイム追跡

Download on the App Store